GFSNE_prec_cloud_333.txt.gz
Cloud_Cover
91 82 45 54 94 100 95 85 48 54 98 100 92 60 71 71 1 3 0 0 5 5 5 5 6 24 42 91 100 100 100 100 100 100 58 98 100 100
65 8 10 8 20 39 81 100 89 74 100 96 96 100 75 85 24 24 39 25 96 99 38 7 5 2 0 0 5 45 92 100 100 100 99 85 92 100
0 0 0 0 0 0 2 33 100 100 97 70 50 38 36 24 1 6 0 0 4 4 8 4 0 0 0 0 0 0 0 0 13 70 100 95 90 100
0 0 0 0 0 0 0 21 28 78 31 52 4 24 0 1 0 0 0 0 0 0 1 6 2 3 8 5 63 4 0 42 11 0 0 1 18 96
0 0 0 0 0 0 0 0 0 0 0 7 0 0 0 0 0 0 0 3 6 3 49 45 89 41 13 5 4 4 40 4 0 0 28 88 64 100
2 0 0 0 0 0 0 0 0 0 0 0 0 0 0 0 0 4 2 6 5 8 33 20 14 24 16 37 10 15 95 2 0 52 98 100 98 70
11 4 8 4 0 0 0 5 0 0 0 0 0 0 0 0 0 0 0 5 5 32 98 98 100 100 90 21 5 59 47 70 59 100 100 95 100 84
0 0 0 0 0 0 0 4 0 0 0 0 0 0 0 0 0 0 0 3 1 16 62 49 98 100 100 6 5 5 9 59 0 37 21 11 99 51
0 0 0 0 0 0 0 0 0 0 0 0 0 0 0 0 5 2 5 4 89 8 15 16 7 100 53 6 94 92 59 5 0 0 0 9 70 82
0 0 0 0 0 0 0 0 0 0 0 0 1 0 0 0 5 4 0 5 8 98 96 5 17 12 100 100 100 100 12 5 0 0 0 0 13 1
0 0 0 0 0 0 0 0 0 0 0 0 0 0 0 0 5 3 0 5 5 5 5 20 13 8 7 14 100 43 5 0 0 0 3 5 20 5
5 0 0 0 0 0 0 0 0 0 0 0 0 0 0 0 2 2 5 0 4 1 2 63 18 6 6 71 45 34 1 1 0 0 0 5 5 5
5 1 0 0 0 5 0 0 0 0 0 0 0 0 0 4 5 4 0 0 4 0 2 2 5 22 100 68 17 68 26 43 4 5 1 2 5 6
0 0 0 0 2 0 0 0 0 0 0 0 0 4 3 5 5 5 2 5 5 4 4 7 98 93 97 13 88 95 73 98 5 5 5 5 5 5
0 0 0 2 5 0 0 0 0 0 0 5 5 0 4 5 5 2 2 6 12 2 5 96 17 5 15 47 100 100 74 51 36 5 5 5 6 5
0 0 1 5 5 5 4 0 1 0 18 26 6 5 5 5 5 5 5 3 5 59 39 97 5 5 5 18 38 89 21 10 5 5 0 5 5 5
5 5 5 5 5 5 4 0 3 3 36 9 5 5 6 5 5 5 5 5 55 100 100 100 5 16 12 2 56 83 64 46 28 15 5 5 5 13
5 4 5 5 5 5 5 5 0 4 4 5 5 5 18 5 14 7 5 5 7 83 100 18 5 7 42 100 86 59 63 58 69 72 95 64 36 56
4 0 5 5 5 5 5 4 5 5 1 0 5 9 83 5 64 8 6 5 3 8 4 36 63 75 52 63 96 74 29 44 80 100 100 100 100 100
6 5 5 5 5 1 5 5 41 90 5 5 97 96 59 100 98 51 5 5 6 8 3 4 40 32 46 73 14 15 69 14 12 23 65 46 94 27
100 86 6 55 5 5 6 7 97 100 8 37 98 86 100 100 100 55 5 5 47 12 3 7 43 10 64 77 76 61 67 100 7 13 58 95 55 39
96 50 5 58 77 70 24 100 100 96 82 34 94 100 100 100 92 17 5 5 56 19 5 6 50 92 98 100 82 80 97 61 75 56 86 92 58 66
70 83 100 100 100 100 100 100 80 99 78 94 100 100 100 100 60 17 5 7 41 5 5 5 24 59 95 100 54 64 72 79 99 92 100 100 100 100

GFSNE_prec_cloud_336.txt.gz
Cloud_Cover
87 42 15 42 70 70 95 79 100 4 100 88 99 43 97 100 94 100 95 98 12 60 32 1 4 5 0 0 0 3 24 66 100 100 100 100 100 100
20 42 37 43 33 30 46 37 70 43 59 76 86 79 49 33 25 88 20 47 0 0 0 0 0 0 0 0 0 0 0 0 1 37 84 100 99 97
6 0 0 0 0 0 0 0 2 83 9 34 44 61 46 53 61 23 10 64 32 0 0 0 0 0 0 0 0 0 0 1 0 55 95 57 36 81
0 0 0 0 0 0 0 0 0 0 0 4 0 1 0 0 1 2 0 0 34 0 0 0 0 0 5 37 93 97 84 5 59 5 6 3 4 3
0 0 0 0 0 0 0 0 0 0 0 0 0 0 0 0 0 0 0 0 0 24 0 4 3 8 92 100 100 92 82 66 47 100 100 98 24 5
0 0 0 0 0 0 0 0 0 0 0 0 0 0 0 0 0 0 1 0 0 0 4 5 4 5 6 4 24 8 4 1 67 76 28 0 22 44
0 0 0 0 0 0 0 0 0 0 0 0 0 0 0 0 0 0 0 0 0 0 0 0 2 24 36 8 5 66 8 5 20 11 0 0 0 0
0 0 0 0 0 0 0 0 0 0 0 0 0 0 0 0 0 0 0 0 0 0 0 6 5 10 28 100 78 54 100 77 47 6 32 97 89 5
0 0 0 0 0 0 0 0 0 0 0 0 0 0 0 0 0 0 0 0 0 2 0 3 3 4 45 86 20 9 5 2 5 65 90 16 2 0
0 0 0 0 0 0 0 0 0 0 0 0 0 0 2 3 0 0 0 0 0 2 5 0 15 99 7 83 76 30 3 2 55 100 32 0 0 1
0 0 0 0 0 0 0 0 0 0 0 0 0 0 0 0 0 0 5 5 1 2 1 0 16 58 12 60 100 48 4 75 64 5 0 0 0 0
0 0 0 0 0 0 0 0 0 0 0 0 0 0 0 0 0 9 14 34 13 5 0 0 3 93 97 61 9 97 96 68 100 100 100 8 1 3
0 0 1 5 5 0 0 0 0 0 0 0 2 5 0 0 48 93 20 96 15 5 0 0 7 83 29 27 5 29 38 91 84 95 100 89 3 5
2 1 5 5 0 0 0 0 4 0 0 0 5 6 26 0 14 75 76 46 5 4 0 0 4 4 3 5 34 28 15 100 57 87 37 5 55 72
0 14 0 1 5 4 5 4 5 4 0 4 7 100 2 5 6 93 25 5 5 1 0 0 5 4 5 6 92 100 100 73 74 68 71 16 26 29
2 0 0 5 5 5 5 5 5 5 0 51 100 100 2 5 15 100 6 31 5 5 20 41 30 5 68 22 32 99 100 99 83 100 78 93 100 100
0 0 2 5 5 37 6 5 7 6 56 100 100 95 3 5 98 100 65 18 5 5 5 8 6 14 25 5 37 95 100 96 100 100 92 61 13 71
0 3 6 5 5 5 5 46 17 30 100 100 89 5 5 5 100 100 75 4 5 5 5 5 3 6 8 73 91 78 73 100 100 100 100 100 82 99
66 96 44 5 4 5 0 5 97 100 100 100 74 10 5 5 100 100 99 5 5 3 5 5 6 74 6 12 71 84 42 98 100 100 100 100 100 100
100 5 5 5 16 12 8 27 100 100 100 100 94 4 10 79 100 100 83 5 24 4 5 5 5 16 18 50 30 26 100 77 100 100 100 100 72 93
8 5 5 96 53 7 56 98 100 100 100 100 100 98 100 100 100 99 6 20 5 5 5 5 5 10 60 98 87 91 97 86 57 92 100 100 83 69
5 44 89 100 100 98 100 100 100 100 100 100 100 100 100 100 100 28 5 40 5 5 5 5 5 35 92 100 97 100 98 100 100 100 100 100 95 97
96 100 100 100 100 100 100 100 100 100 94 100 100 78 25 100 100 19 6 5 5 5 5 5 5 5 73 100 100 100 98 84 100 54 73 100 98 100

GFSNE_prec_cloud_339.txt.gz
Cloud_Cover
99 50 40 50 98 46 33 75 22 88 74 76 8 70 99 45 16 98 11 0 0 0 0 0 0 0 0 0 4 5 1 0 0 1 36 90 99 50
19 51 8 5 0 0 0 0 0 0 6 64 39 26 15 38 19 72 40 4 0 0 0 0 0 0 0 0 0 0 0 0 0 0 0 0 23 55
5 0 0 0 0 0 0 0 0 0 32 3 91 0 22 17 23 33 95 29 0 0 0 0 0 0 0 4 4 0 0 0 2 18 5 3 4 8
0 0 0 0 0 0 0 0 0 0 6 0 1 0 0 0 0 0 1 2 84 0 0 0 0 0 0 0 0 0 0 5 5 8 68 20 5 4
0 0 0 0 0 0 0 0 0 0 0 0 0 0 0 0 0 0 0 0 0 0 0 0 0 0 0 0 0 0 3 5 5 52 67 51 5 5
0 0 0 0 0 0 0 0 0 0 0 0 0 0 0 0 0 0 0 0 0 0 0 31 0 1 6 0 0 1 4 33 54 100 100 5 5 5
0 0 0 0 0 0 0 0 0 0 0 0 0 0 0 2 4 0 0 3 85 0 0 32 4 45 91 5 4 5 42 100 87 5 20 5 5 4
0 0 0 0 0 0 5 0 0 0 0 0 0 0 2 0 100 6 0 3 5 5 5 7 7 4 96 5 0 0 2 5 3 0 0 4 4 5
0 0 0 0 3 4 0 0 0 0 5 5 4 0 0 15 100 100 4 0 6 18 12 5 1 8 31 5 5 78 100 24 4 1 5 2 0 0
0 0 0 4 0 0 0 0 0 0 0 4 5 5 52 100 100 97 6 5 33 92 4 0 0 1 12 10 16 6 5 99 94 93 58 1 0 0
0 0 0 0 0 0 1 5 3 5 5 4 4 0 2 100 84 10 5 4 71 100 10 0 0 0 0 44 100 23 87 4 4 4 5 36 1 1
0 0 0 0 5 5 4 5 2 0 0 0 0 2 100 100 86 83 5 5 5 64 100 5 0 0 1 5 93 100 98 18 6 5 6 5 0 0
0 0 1 1 5 1 0 0 0 3 0 0 2 48 100 100 100 35 13 5 22 100 30 2 0 0 0 5 16 95 9 5 39 13 90 100 5 10
0 0 1 5 3 0 4 2 4 2 5 15 4 56 100 100 63 69 5 31 100 41 5 0 4 0 1 4 26 4 3 13 100 38 15 8 5 73
3 6 90 10 5 5 0 0 1 5 5 50 18 100 100 100 13 29 5 93 6 56 36 0 0 0 3 5 0 6 11 5 5 56 83 76 7 70
0 3 40 22 6 5 0 0 1 66 95 20 100 100 100 77 18 57 98 5 16 5 7 27 9 4 1 3 16 90 100 98 82 17 44 38 58 99
5 19 50 9 31 2 3 100 100 100 82 97 100 100 100 100 99 20 2 4 5 13 12 5 11 18 94 67 35 61 33 82 99 94 5 50 36 62
5 5 5 5 5 77 99 98 100 88 100 100 100 100 100 93 36 6 5 5 7 20 100 11 5 2 7 21 33 22 14 60 91 75 5 48 91 55
5 5 5 5 5 71 57 72 76 78 100 100 100 100 25 99 8 2 5 44 100 100 63 50 5 5 3 3 5 34 89 6 26 94 98 57 91 99
5 1 22 52 6 59 70 97 100 100 100 100 100 74 99 4 4 31 64 100 100 100 99 41 6 5 4 38 10 15 81 42 94 74 100 5 14 16
73 84 100 100 5 61 51 100 100 100 100 100 72 30 4 2 11 27 92 100 94 100 78 12 5 1 40 70 95 85 62 86 85 44 93 39 69 87
100 100 90 97 9 94 87 99 100 100 100 100 100 100 45 24 86 100 100 100 100 100 52 36 97 9 6 95 100 70 73 97 57 97 96 80 93 7
100 100 100 100 73 100 92 100 100 100 100 100 100 68 94 89 100 65 100 100 100 100 100 100 100 6 5 22 49 63 73 100 88 99 100 43 27 77

GFSNE_prec_cloud_342.txt.gz
Cloud_Cover
5 100 2 15 1 0 0 0 1 88 12 28 0 0 76 100 2 52 49 0 0 0 0 0 0 0 0 0 0 0 0 4 3 0 0 3 85 100
5 5 5 0 0 0 0 0 0 0 0 5 12 0 11 71 7 14 100 4 0 0 0 0 0 0 0 0 0 0 0 0 0 0 1 0 0 8
5 97 0 0 0 0 0 0 0 4 9 0 2 0 0 0 21 0 78 18 3 0 0 0 0 0 0 0 0 0 0 0 0 0 0 0 0 0
100 25 0 0 0 0 0 0 0 0 0 0 0 0 0 0 0 11 91 2 2 0 0 0 0 0 0 0 0 0 0 0 0 0 0 0 0 0
20 0 0 0 0 0 0 4 0 0 0 0 0 0 0 0 0 16 100 100 4 0 0 0 0 3 0 0 0 0 0 0 0 0 0 0 46 19
0 0 0 0 0 0 0 3 3 4 0 0 1 0 0 0 2 26 78 100 5 0 2 6 64 18 38 0 0 0 0 0 0 0 0 1 1 5
0 0 0 0 0 0 2 0 0 0 0 0 0 0 0 0 2 96 100 100 0 0 0 3 52 20 2 2 0 0 0 0 0 0 0 5 5 5
0 0 0 0 0 0 0 0 0 0 0 0 0 0 0 0 1 100 100 100 5 0 1 0 0 84 12 77 5 3 1 0 0 0 0 0 3 54
0 0 0 0 0 0 2 0 0 4 5 0 0 1 0 5 9 100 100 100 92 5 2 0 0 0 3 18 5 3 1 5 2 0 0 0 0 0
0 0 0 0 0 0 3 5 24 61 5 0 3 2 5 5 24 100 100 100 70 5 0 0 0 1 0 4 6 5 43 6 4 0 0 2 2 0
0 0 0 0 1 5 11 5 16 46 3 5 5 2 3 4 100 100 100 100 94 2 0 0 4 0 0 30 36 100 100 97 29 4 0 7 53 3
0 0 0 2 5 15 39 27 14 0 0 0 37 6 6 99 100 100 100 100 5 0 0 0 6 12 5 0 28 62 100 100 99 21 98 10 5 5
0 0 3 5 19 45 58 60 20 65 5 29 89 52 98 100 100 100 85 92 4 0 1 7 100 6 48 56 56 40 4 0 4 11 5 5 4 2
0 2 5 12 29 55 30 58 19 2 4 62 13 94 100 100 97 32 37 5 1 3 74 7 96 58 99 91 3 0 1 5 5 4 3 3 4 5
16 5 8 5 30 24 35 6 1 0 2 47 8 95 100 100 9 75 6 5 5 100 100 100 100 100 100 100 59 10 25 5 12 5 5 5 1 5
5 5 57 67 9 5 82 5 5 5 5 5 74 100 100 100 44 55 79 5 42 92 73 98 98 100 100 100 100 60 6 10 48 64 18 4 3 66
5 71 95 17 12 37 96 53 36 7 5 6 95 100 100 100 98 48 96 5 100 84 90 100 100 100 100 88 25 4 5 3 4 4 2 27 7 5
6 18 52 91 100 100 100 100 51 5 5 78 100 100 100 100 100 40 45 4 91 100 100 100 100 100 100 4 5 1 4 33 5 31 5 42 9 5
5 13 100 38 100 100 100 90 50 58 56 78 100 100 100 100 79 6 5 100 95 99 100 100 100 100 84 6 88 5 5 22 4 6 40 5 4 5
5 99 14 100 100 100 99 100 100 97 100 98 100 100 100 100 5 5 24 100 99 100 100 100 100 100 8 16 72 5 27 6 15 62 6 5 5 5
79 100 100 100 88 100 100 100 100 100 96 100 100 100 100 31 25 15 98 100 100 100 100 100 100 44 32 10 99 100 20 5 7 9 9 75 26 10
100 100 100 100 100 100 100 100 100 100 100 100 100 100 98 26 70 72 83 100 100 100 100 100 45 46 78 5 95 99 62 5 5 5 100 91 83 94
100 100 100 100 100 100 100 100 100 100 100 100 100 100 28 97 100 100 100 100 100 100 100 91 9 70 5 5 80 74 98 7 17 16 31 65 12 97

GFSNE_prec_cloud_345.txt.gz
Cloud_Cover
98 21 64 5 0 0 0 0 7 62 13 12 0 0 26 2 54 98 69 5 26 100 5 0 0 0 0 0 0 0 0 0 0 0 1 9 24 95
72 31 42 4 0 0 0 0 0 0 0 0 0 0 0 0 6 26 93 19 99 100 1 0 0 0 0 0 0 4 0 0 0 0 0 0 0 17
66 81 3 0 0 0 0 0 0 0 0 5 0 0 0 0 0 0 0 5 46 90 12 36 0 0 0 0 0 0 0 0 0 0 0 0 0 0
43 5 0 0 0 0 0 0 0 0 0 0 0 0 0 0 0 4 0 5 99 100 100 0 0 4 0 0 0 0 0 0 0 0 0 0 0 0
48 46 0 0 0 0 0 0 0 0 2 3 2 5 0 0 3 17 5 67 100 100 100 0 0 0 0 5 3 0 0 0 0 0 0 0 0 0
88 2 0 0 0 0 0 0 1 2 3 5 10 5 5 0 0 21 71 96 100 100 9 0 0 0 1 5 13 1 0 0 0 0 0 0 0 0
6 0 0 0 0 0 0 4 5 5 5 74 96 5 0 0 0 26 65 78 100 27 0 0 0 2 5 57 37 8 0 0 0 0 0 0 0 0
4 0 0 0 0 0 0 24 59 18 87 51 8 5 5 0 5 100 97 99 19 0 0 0 0 30 30 100 100 52 1 4 2 0 0 0 0 0
0 0 0 0 0 0 2 49 8 43 10 43 22 62 4 5 44 100 39 36 54 3 5 5 2 34 21 100 100 61 2 5 5 5 5 4 0 0
0 0 0 0 0 5 6 5 68 15 50 72 27 1 2 5 1 100 100 100 98 5 5 6 24 8 100 100 100 78 87 16 5 6 5 4 4 3
0 0 0 0 7 6 5 6 43 36 5 5 0 0 0 1 66 100 100 100 47 5 5 14 5 79 100 100 100 85 23 94 4 5 6 5 5 5
0 0 0 9 5 0 5 5 5 5 5 5 0 2 0 3 59 100 100 100 7 5 5 5 97 80 91 100 75 8 1 0 0 1 5 5 5 0
0 1 3 5 5 5 5 5 5 5 5 5 5 2 0 12 96 100 98 11 5 2 5 5 58 100 100 99 4 0 10 4 5 2 5 5 4 0
0 5 4 5 5 5 5 5 5 5 25 5 5 4 6 92 100 100 54 5 0 2 5 61 88 100 100 98 2 95 64 5 5 5 5 5 5 2
0 5 5 5 5 5 20 5 4 1 61 94 100 5 20 93 99 93 1 5 2 4 32 52 94 100 100 56 99 86 6 4 5 5 10 5 5 5
3 5 37 11 9 6 70 22 1 4 92 100 91 80 5 60 100 71 5 5 5 14 28 42 90 100 100 100 31 40 20 1 0 2 5 5 5 5
0 10 31 59 100 100 73 85 5 38 100 100 100 26 92 78 100 100 21 5 5 5 5 14 100 100 100 93 5 5 5 5 5 5 5 5 5 5
5 5 5 37 100 100 100 38 99 89 100 100 72 28 84 100 100 100 9 5 5 5 35 22 94 100 100 47 16 4 23 66 98 5 5 16 5 5
1 5 5 5 65 100 100 100 100 100 100 100 93 25 100 100 98 66 12 5 5 30 36 100 100 100 100 54 21 29 52 100 100 100 98 5 5 5
5 5 3 30 84 91 96 91 100 100 100 51 34 98 91 78 10 21 22 10 11 10 99 22 78 64 100 92 83 6 5 100 100 100 100 59 5 5
1 5 34 63 68 100 98 100 100 100 94 24 92 96 36 44 72 74 72 100 92 99 97 96 76 100 99 100 100 98 100 100 53 74 100 10 10 6
6 35 6 62 90 100 100 90 90 100 100 88 46 90 100 100 58 29 100 100 87 100 99 100 100 100 100 98 87 100 100 100 100 98 100 24 78 70
82 64 94 61 74 98 42 59 20 91 100 90 96 98 100 100 100 100 100 100 100 100 58 97 100 100 100 100 100 100 100 100 100 100 99 99 84 5